Weather History for Millington, TN

Change the Weather History Date:

Sunday, March 10, 2013

  Actual Average Record
Temperature  
Mean Temperature 58 °F -  
Max Temperature 66 °F 57 °F 80 °F (2009)
Min Temperature 48 °F 39 °F 26 °F (1998)
Degree Days  
Heating Degree Days 7    
Growing Degree Days 8 (Base 50)    
Moisture  
Dew Point 50 °F    
Average Humidity 74    
Maximum Humidity 100    
Minimum Humidity 45    
Precipitation  
Precipitation 0.00 in - - ()
Sea Level Pressure  
Sea Level Pressure 29.85 in    
Wind  
Wind Speed 12 mph (SSE)    
Max Wind Speed 21 mph    
Max Gust Speed 26 mph    
Visibility 9 miles    
Events Rain    
Averages and records for this station are not official NWS values.
T = Trace of Precipitation, MM = Missing Value Source: NWS Daily Summary

Daily Weather History Graph

Daily Weather History Graph

Search for Another Location

Airport:

Trip Planner

Search our weather history database for the weather conditions in past years. The results will help you decide how hot, cold, wet, or windy it might be!

Date:

Astronomy

Mar. 10, 2013 Rise Set
Actual Time 7:16 AM CDT 7:03 PM CDT
Civil Twilight 6:51 AM CDT 7:28 PM CDT
Nautical Twilight 6:21 AM CDT 7:57 PM CDT
Astronomical Twilight 5:52 AM CDT 8:27 PM CDT
Moon 6:15 AM CDT (3/10) 6:11 PM CDT (3/10)
Length of Visible Light 12h 37m
Length of Day
11h 46m
Waning Crescent, 2% of the Moon is Illuminated
Mar 10
Waning Crescent
Mar 11
New
Mar 19
First Quarter
Mar 27
Full
Apr 2
Last Quarter

Hourly Weather History & Observations

Time (CDT) Temp. Dew Point Humidity Pressure Visibility Wind Dir Wind Speed Gust Speed Precip Events Conditions
12:55 AM 64.4 °F 42.8 °F 45% 29.94 in 10.0 mi SSE 12.7 mph - N/A   Partly Cloudy
1:55 AM 62.6 °F 44.6 °F 52% 29.92 in 10.0 mi SSE 12.7 mph - N/A   Partly Cloudy
3:15 AM 62.6 °F 44.6 °F 52% 29.91 in 10.0 mi SSE 11.5 mph - N/A   Clear
3:35 AM 62.6 °F 46.4 °F 55% 29.91 in 10.0 mi SSE 13.8 mph - N/A   Clear
3:55 AM 62.6 °F 46.4 °F 55% 29.90 in 10.0 mi SE 10.4 mph - N/A   Partly Cloudy
4:15 AM 62.6 °F 46.4 °F 55% 29.89 in 10.0 mi SE 13.8 mph - N/A   Partly Cloudy
4:35 AM 60.8 °F 46.4 °F 59% 29.88 in 10.0 mi SE 13.8 mph - N/A   Partly Cloudy
4:55 AM 60.8 °F 48.2 °F 63% 29.88 in 10.0 mi SE 16.1 mph - N/A   Partly Cloudy
5:15 AM 60.8 °F 48.2 °F 63% 29.88 in 10.0 mi SE 12.7 mph - N/A   Clear
5:35 AM 60.8 °F 48.2 °F 63% 29.88 in 10.0 mi SE 13.8 mph - N/A   Overcast
5:55 AM 60.8 °F 48.2 °F 63% 29.88 in 10.0 mi SE 10.4 mph - N/A   Overcast
7:55 AM 59.0 °F 50.0 °F 72% 29.86 in 10.0 mi SE 16.1 mph 26.5 mph N/A   Mostly Cloudy
8:55 AM 60.8 °F 50.0 °F 68% 29.85 in 10.0 mi SE 15.0 mph - N/A   Mostly Cloudy
9:55 AM 62.6 °F 51.8 °F 68% 29.86 in 10.0 mi SE 13.8 mph - N/A   Overcast
10:55 AM 62.6 °F 53.6 °F 72% 29.81 in 10.0 mi SE 20.7 mph - N/A   Overcast
11:55 AM 66.2 °F 55.4 °F 68% 29.82 in 10.0 mi SSE 16.1 mph 26.5 mph N/A   Overcast
12:55 PM 64.4 °F 55.4 °F 73% 29.80 in 10.0 mi SSE 19.6 mph - N/A   Overcast
1:55 PM 62.6 °F 57.2 °F 82% 29.77 in 8.0 mi SE 15.0 mph - N/A Rain Light Rain
2:55 PM 53.6 °F 51.8 °F 94% 29.80 in 6.0 mi WNW 15.0 mph - N/A Rain Light Rain
3:55 PM 53.6 °F 51.8 °F 94% 29.83 in 6.0 mi West 11.5 mph - N/A Rain Light Rain
4:55 PM 51.8 °F 51.8 °F 100% 29.81 in 4.0 mi Calm Calm - N/A Rain Light Rain
5:55 PM 51.8 °F 51.8 °F 100% 29.77 in 8.0 mi ESE 6.9 mph - N/A Rain Light Rain
6:55 PM 51.8 °F 51.8 °F 100% 29.81 in 10.0 mi Calm Calm - N/A Rain Light Rain
7:55 PM 51.8 °F 51.8 °F 100% 29.81 in 10.0 mi SE 3.5 mph - N/A   Mostly Cloudy
9:55 PM 53.6 °F 53.6 °F 100% 29.84 in 10.0 mi South 5.8 mph - N/A   Mostly Cloudy
10:55 PM 53.6 °F 51.8 °F 94% 29.83 in 10.0 mi South 5.8 mph - N/A   Overcast
11:55 PM 50.0 °F 44.6 °F 82% 29.86 in 10.0 mi WSW 10.4 mph - N/A   Overcast
12:55 AM 48.2 °F 42.8 °F 82% 29.83 in 10.0 mi West 10.4 mph - N/A   Overcast